カタログに戻る

STARLINK-31320

運用中通信VLEO
NORAD 58886·PAYLOAD·🇺🇸 United States

打ち上げ Jan 29, 2024 から Vandenberg Space Force Base

Loading…

次のパス (今後24時間)

TLE

最新Source: CelesTrak SupGP

元期: Sep 14, 2026, 22:13 UTC

1 58886C 24020L   26257.92618056 -.00071703  00000+0 -21179-2 0  2570
2 58886  53.1567 159.4347 0001306  98.9077 149.6162 15.34435251    10

AllMySatでSTARLINK-31320をリアルタイム追跡

Download on the App Store